RH
46 40 35 34 34 32 30 28 27 27 27 31 32 29 28 29 30 32 33 34 34 33 30 28 30 32 34 34 34 34 34 30 21 14 11 10 10 9 8 7 7 6
50 42 36 35 35 33 30 28 29 29 34 39 37 30 25 22 21 22 24 26 30 34 36 35 38 42 41 41 39 35 31 29 26 18 12 10 9 9 8 8 8 7
67 59 48 41 39 35 30 29 31 34 39 38 30 23 18 14 13 13 15 17 21 30 40 41 41 45 45 44 43 38 30 27 25 20 15 12 12 11 11 10 10 10
76 73 66 59 53 43 35 34 36 38 39 34 25 20 16 13 11 9 10 12 11 20 38 46 45 47 51 53 51 43 33 27 23 19 16 14 13 13 13 14 14 15
65 65 70 73 66 54 44 40 38 38 37 33 28 23 17 12 11 10 9 10 10 12 26 43 50 51 56 62 61 52 41 31 23 18 16 16 16 16 17 17 17 18
52 49 67 82 74 59 50 42 36 35 35 35 33 27 21 15 13 12 10 10 11 11 16 32 49 58 65 71 69 58 44 31 23 19 18 18 17 18 18 19 19 19
52 45 65 89 85 66 55 47 40 37 36 37 36 30 24 19 15 13 12 11 10 11 16 26 39 54 67 73 69 57 42 31 26 23 22 21 21 21 21 21 22 22
57 44 50 70 73 63 59 56 50 46 43 40 35 30 24 19 15 14 13 13 11 12 18 24 31 41 51 57 56 49 42 39 39 38 35 31 27 26 26 26 26 26
54 42 36 45 50 50 55 59 57 52 45 39 33 28 24 18 16 15 14 14 13 12 15 21 28 33 38 42 44 44 45 45 46 47 46 43 38 34 32 30 30 30
40 38 39 46 51 54 57 59 56 49 42 37 32 28 23 19 17 15 14 15 14 13 14 18 27 35 38 39 39 42 47 48 48 48 47 45 42 39 36 35 35 34
44 48 53 56 59 61 61 58 53 47 41 36 32 27 23 20 18 17 16 16 15 15 17 20 28 37 43 46 46 44 44 44 45 49 50 49 46 42 40 40 40 39
63 65 64 63 63 61 57 52 48 44 40 36 32 28 26 24 23 21 19 18 18 20 23 27 29 31 37 45 49 51 53 51 47 46 49 52 53 51 48 46 45 45
72 69 65 63 59 55 52 49 46 44 41 39 37 34 32 30 27 25 24 22 20 21 26 29 27 25 27 35 45 54 63 66 65 60 55 54 55 54 53 52 51 52
72 70 67 62 58 56 54 52 51 50 48 47 45 42 38 35 32 30 27 25 23 23 24 25 23 20 19 25 35 48 61 70 73 68 64 65 61 52 49 53 58 62
72 72 70 68 66 63 59 56 54 53 51 48 45 42 39 36 34 32 30 29 27 25 24 23 22 21 19 19 22 32 47 58 59 57 62 71 67 56 53 55 56 60
67 66 66 67 65 60 58 54 50 49 48 45 43 42 40 38 36 34 32 31 29 28 27 26 24 23 22 20 17 19 27 33 35 40 48 54 53 52 61 68 68 67
65 63 61 60 57 55 53 49 46 45 41 38 39 39 37 35 34 31 30 29 27 27 27 25 26 27 27 26 23 20 19 18 19 21 23 30 38 45 53 60 66 74
57 53 49 47 44 41 38 38 41 39 33 33 36 35 32 32 30 28 26 25 25 26 26 26 25 27 31 32 29 25 21 17 17 17 15 26 50 68 67 54 49 65
35 36 34 30 25 22 24 31 38 41 41 42 40 39 39 34 29 28 27 25 25 26 28 27 25 31 42 44 38 31 26 22 22 25 22 23 42 60 59 49 50 67
23 27 26 23 22 26 32 41 45 47 49 45 38 39 39 32 27 28 27 26 25 25 26 26 29 42 60 70 66 56 50 45 39 36 33 30 33 35 32 32 41 52
18 19 20 21 25 29 36 44 46 43 41 38 33 34 35 34 33 32 29 27 26 27 28 27 27 32 48 72 83 74 65 58 46 38 34 28 24 25 24 26 28 28
31 28 27 25 26 31 40 49 50 44 41 41 40 40 43 46 43 37 35 35 34 35 34 32 32 31 37 59 76 70 58 50 42 37 34 28 25 27 27 29 31 29
57 51 49 50 55 61 65 68 66 61 54 53 54 54 55 56 52 47 46 44 42 41 41 39 39 37 38 50 62 63 58 51 44 40 39 34 32 32 30 30 34 33
85 76 73 82 90 93 91 87 85 80 72 68 69 66 62 59 55 52 51 49 45 42 43 42 40 38 38 41 45 50 52 49 43 39 39 35 29 28 29 29 29 29
100 93 90 95 100 101 100 96 93 90 84 79 77 73 68 64 59 54 53 49 45 43 42 41 40 39 38 37 37 38 41 42 38 35 36 34 30 28 28 27 29 29
98 100 99 100 100 100 100 99 99 97 90 81 76 72 69 66 61 58 55 50 46 43 40 40 43 41 38 39 39 37 37 37 36 34 33 32 32 30 29 35 37 31
Wind_Speed
13 16 16 16 16 17 18 17 16 15 12 11 11 11 11 11 11 13 15 17 19 20 19 17 16 15 14 15 16 16 16 14 13 13 13 12 12 12 11 11 11 10
12 15 17 17 17 19 19 18 17 14 12 11 10 10 10 10 12 14 16 17 19 21 21 19 17 16 16 16 16 16 16 15 14 14 13 12 12 12 11 11 10 10
15 17 19 19 20 21 21 19 17 14 11 10 10 9 10 11 12 14 16 17 18 19 20 22 20 19 18 17 17 16 15 15 15 15 14 13 13 12 12 11 10 10
16 17 19 21 22 23 22 20 17 14 11 10 10 10 11 11 12 12 14 16 17 17 17 20 21 20 19 18 17 17 16 15 15 15 15 15 14 13 12 12 11 10
15 16 18 21 23 24 22 19 17 13 11 11 10 11 12 11 11 12 14 14 15 15 14 16 19 20 20 20 19 18 17 16 16 15 15 15 14 14 13 12 12 12
17 17 17 20 23 23 20 18 16 14 13 12 12 12 12 11 11 12 14 15 16 15 14 14 16 19 20 20 20 19 17 16 16 16 15 15 15 14 14 14 14 14
18 16 14 16 20 21 20 19 17 16 15 15 14 13 12 12 12 12 13 15 16 16 14 13 13 15 17 18 18 18 17 16 15 15 15 15 16 16 16 16 16 16
19 16 13 13 17 19 21 22 20 19 18 17 16 15 14 13 13 12 13 14 15 15 14 12 12 12 14 15 16 17 16 16 16 15 15 16 16 17 17 18 18 18
19 18 16 16 17 18 20 21 21 21 20 18 18 17 16 15 14 13 13 13 14 15 15 13 12 11 12 14 15 16 16 16 16 17 17 17 18 18 19 19 19 19
19 19 19 18 18 18 19 20 21 21 20 19 19 18 17 16 15 14 15 15 15 16 15 14 13 12 12 13 14 15 15 16 17 17 18 19 19 19 19 19 19 19
20 21 20 20 19 19 20 21 21 21 20 19 18 18 17 16 15 16 16 17 17 17 16 14 13 12 12 13 14 15 16 17 18 19 20 20 20 20 20 20 21 21
20 19 19 20 20 19 20 20 20 20 19 18 17 18 18 17 17 17 18 18 18 17 16 14 13 12 12 12 14 15 17 18 19 20 21 22 22 22 22 23 23 23
15 15 16 17 18 18 18 18 18 18 18 18 18 19 19 18 18 18 19 19 18 18 17 16 15 14 13 13 14 15 17 18 20 21 22 23 25 25 25 25 25 25
13 14 15 16 17 18 18 18 18 18 19 19 19 19 19 19 19 19 19 19 20 20 19 19 19 18 17 15 15 15 16 18 20 21 21 24 26 27 27 27 27 27
15 15 16 17 18 19 19 19 19 19 19 19 19 19 20 20 20 20 21 21 21 22 22 22 23 23 22 20 19 18 18 19 20 20 20 23 26 27 28 29 30 31
18 18 18 18 19 20 20 20 21 21 21 21 21 22 22 22 23 23 24 24 24 25 25 26 26 27 26 25 25 24 22 22 23 22 22 23 25 27 28 30 31 33
20 20 20 21 21 22 23 23 23 23 23 23 24 24 24 24 25 25 26 27 27 28 28 29 30 31 30 30 30 29 27 26 26 26 26 26 27 28 29 30 32 34
22 23 23 23 24 25 26 25 25 25 25 26 27 27 26 26 26 27 28 28 29 30 32 33 34 35 34 34 34 33 32 30 30 30 29 29 29 29 30 31 33 35
25 25 26 27 27 28 29 28 27 28 27 28 29 29 28 28 28 29 30 30 31 32 34 35 37 38 36 35 35 35 35 34 33 33 34 34 34 33 32 33 35 37
30 29 30 31 30 31 32 31 31 31 30 30 31 31 31 32 32 33 33 34 34 33 32 33 37 38 35 33 34 34 33 33 34 36 36 37 37 36 35 35 37 39
37 36 37 36 35 35 35 35 35 35 36 36 35 36 36 37 36 35 35 34 33 32 30 31 36 37 35 33 33 32 31 31 33 34 36 37 39 39 39 39 39 40
41 41 41 41 40 40 40 40 40 41 42 41 39 38 36 34 33 32 31 30 29 29 31 33 35 36 35 34 33 32 32 33 34 35 36 38 39 40 41 42 41 41
44 43 43 43 42 42 42 42 43 43 42 42 40 37 34 32 30 30 30 30 30 32 34 35 36 37 37 37 37 37 38 39 40 40 40 41 43 44 45 46 43 41
47 47 45 43 41 42 43 43 43 43 42 41 40 37 35 34 34 35 36 37 39 40 41 42 43 44 44 44 45 46 47 47 48 48 47 48 48 48 49 48 45 44
49 50 48 44 44 46 47 46 46 45 44 44 42 41 40 41 42 43 46 47 48 49 49 50 50 50 50 50 51 52 52 52 52 51 51 52 52 52 53 51 48 48
49 49 49 48 48 49 48 47 45 45 47 48 49 49 50 51 52 53 54 54 54 54 54 54 54 55 55 54 54 55 56 56 55 55 55 55 54 54 53 50 47 47
Wind_Direction
232 240 241 242 244 248 253 256 260 263 269 276 282 286 290 294 296 296 297 297 291 283 275 269 266 268 273 278 283 287 287 289 292 293 292 290 289 288 287 288 289 291
237 245 245 247 249 253 256 257 260 263 268 276 282 289 297 304 306 303 302 303 299 285 269 261 259 262 268 274 278 282 283 284 286 289 289 287 286 285 285 286 287 289
255 249 244 245 249 253 255 257 259 259 263 272 281 290 299 306 309 308 304 304 305 292 268 257 256 260 265 269 271 273 277 278 280 282 283 281 280 280 281 282 284 286
263 257 251 248 249 252 252 255 256 253 254 264 277 289 297 302 307 311 310 305 306 301 277 259 256 260 267 270 269 269 272 275 277 278 279 279 278 279 279 279 280 282
270 270 264 256 253 253 252 253 253 250 253 261 274 285 288 294 303 310 312 308 304 301 287 267 259 260 267 272 272 271 273 276 277 276 276 276 277 278 278 279 280 281
269 277 274 258 250 249 251 253 253 254 260 265 273 280 281 285 298 305 308 308 303 298 290 275 264 261 263 266 267 267 271 274 274 274 274 273 273 274 274 275 276 276
270 280 280 258 245 247 254 260 262 261 264 267 271 275 276 279 289 298 301 301 300 299 293 281 270 265 262 261 260 261 264 268 271 273 275 275 275 274 273 274 274 275
271 278 279 261 250 252 259 264 264 263 263 265 268 270 271 275 282 290 293 292 293 294 292 286 279 272 267 263 260 259 262 265 269 273 276 278 280 280 281 281 281 281
269 272 273 267 260 258 259 258 257 258 259 260 262 264 266 270 277 283 284 284 286 288 289 289 285 278 272 267 263 263 265 268 271 274 276 278 280 282 283 284 284 284
268 270 271 269 267 262 256 251 251 252 253 255 256 257 260 264 270 275 276 276 279 283 284 283 282 280 276 273 270 269 270 271 274 276 277 278 279 280 280 281 282 281
268 269 270 268 265 259 253 250 249 250 251 252 254 255 258 261 265 268 270 271 273 276 277 276 277 277 277 276 275 273 272 272 273 274 275 275 275 275 276 276 277 277
267 266 265 263 260 255 253 252 252 252 252 252 253 255 257 259 262 264 266 267 269 271 273 274 275 277 277 276 274 272 272 273 273 274 274 273 273 273 273 273 272 273
264 264 261 259 256 254 254 254 254 255 255 255 256 256 258 258 259 262 265 267 269 270 271 272 273 274 275 275 274 271 269 269 271 273 274 274 274 272 272 272 272 272
258 259 257 256 255 256 257 259 260 260 260 260 261 261 262 261 261 263 266 268 270 271 271 271 271 272 272 273 273 271 267 265 265 268 272 273 273 274 274 273 272 271
250 252 252 253 253 255 257 258 258 261 262 263 264 264 264 264 264 265 266 267 268 269 270 270 270 271 271 271 270 266 263 262 262 266 268 269 272 276 276 273 271 270
246 247 248 249 252 255 257 257 257 260 263 264 264 264 264 265 266 268 268 269 270 269 270 270 270 270 270 271 270 267 264 263 265 266 266 266 270 274 275 274 273 272
248 248 249 251 255 258 261 262 262 264 266 266 266 266 266 266 268 270 272 273 274 275 275 274 272 269 268 269 270 270 270 270 270 270 268 267 268 270 272 273 274 274
253 254 254 254 257 259 261 262 262 263 264 264 264 265 265 266 268 272 274 276 278 279 279 278 274 270 268 269 270 270 272 274 274 274 273 271 270 269 270 273 276 276
257 256 255 256 257 259 259 259 259 260 261 261 262 264 265 265 268 272 274 276 277 277 278 278 276 272 270 270 270 271 272 273 273 274 275 275 275 274 273 273 274 275
263 260 258 258 258 258 259 260 262 265 266 267 269 271 271 272 272 272 273 274 275 275 276 279 279 277 274 270 269 270 271 271 271 273 275 277 278 278 278 275 273 273
269 266 265 264 263 263 263 264 267 271 273 274 275 276 278 278 276 273 272 271 271 272 274 278 279 278 275 270 268 268 268 269 270 271 273 276 278 280 282 281 280 280
268 268 268 269 269 268 267 267 271 275 276 276 276 276 277 277 275 271 268 267 268 270 274 278 280 279 276 272 269 269 271 272 273 273 274 275 275 277 281 283 284 286
266 268 271 272 272 270 269 270 274 277 277 276 275 273 271 270 269 268 268 269 271 272 274 276 278 279 277 275 274 274 276 278 278 278 279 278 276 278 281 282 283 286
266 268 270 269 266 266 267 270 273 276 276 275 274 272 269 268 269 270 272 274 275 276 276 276 276 277 276 276 276 276 276 278 279 280 281 280 279 279 280 280 282 285
263 265 264 262 260 261 265 268 270 273 275 275 274 274 272 270 271 272 273 275 275 276 277 278 278 278 278 277 277 277 277 277 278 279 280 280 280 279 279 280 282 283
260 260 258 256 257 259 261 263 266 270 274 275 276 277 276 275 274 274 275 275 275 275 276 278 279 280 279 278 278 279 279 279 280 281 280 280 280 279 279 279 280 281